Hourly Weather Djelfa

Today, 12 July, Sunday

Time Temperature Precipitation Wind Pressure Humidity
00:00 +29°C° 0 mm 1 mps 667 mmHg 33%
01:00 +28°C° 0 mm 1 mps 667 mmHg 32%
02:00 +28°C° 0 mm 1 mps 667 mmHg 31%
03:00 +27°C° 0 mm 2 mps 666 mmHg 31%
04:00 +28°C° 0 mm 2 mps 667 mmHg 27%
05:00 +28°C° 0 mm 3 mps 667 mmHg 23%
06:00 +29°C° 0 mm 3 mps 668 mmHg 20%
07:00 +32°C° 0 mm 4 mps 668 mmHg 17%
08:00 +35°C° 0 mm 6 mps 669 mmHg 14%
09:00 +38°C° 0 mm 7 mps 670 mmHg 11%
10:00 +38°C° 0 mm 7 mps 670 mmHg 11%
11:00 +39°C° 0 mm 7 mps 670 mmHg 11%
12:00 +40°C° 0 mm 6 mps 670 mmHg 10%
13:00 +40°C° 0 mm 6 mps 669 mmHg 10%
14:00 +40°C° 0 mm 5 mps 669 mmHg 10%
15:00 +40°C° 0 mm 5 mps 668 mmHg 10%
16:00 +38°C° 0 mm 4 mps 668 mmHg 10%
17:00 +38°C° 0 mm 4 mps 668 mmHg 11%
18:00 +37°C° 0 mm 4 mps 668 mmHg 11%
19:00 +36°C° 0 mm 5 mps 668 mmHg 15%
20:00 +34°C° 0 mm 5 mps 668 mmHg 19%
21:00 +32°C° 0 mm 6 mps 668 mmHg 22%
22:00 +30°C° 0 mm 5 mps 668 mmHg 23%
23:00 +30°C° 0 mm 4 mps 668 mmHg 24%

Tomorrow, 13 July, Monday

Time Temperature Precipitation Wind Pressure Humidity
00:00 +29°C° 0 mm 2 mps 668 mmHg 25%
01:00 +29°C° 0 mm 2 mps 667 mmHg 25%
02:00 +28°C° 0 mm 2 mps 667 mmHg 25%
03:00 +28°C° 0 mm 1 mps 666 mmHg 26%
04:00 +28°C° 0 mm 2 mps 667 mmHg 26%
05:00 +29°C° 0 mm 2 mps 667 mmHg 26%
06:00 +29°C° 0 mm 2 mps 667 mmHg 26%
07:00 +31°C° 0 mm 3 mps 668 mmHg 23%
08:00 +33°C° 0 mm 3 mps 668 mmHg 21%
09:00 +35°C° 0 mm 4 mps 668 mmHg 18%
10:00 +36°C° 0 mm 4 mps 668 mmHg 17%
11:00 +36°C° 0 mm 4 mps 668 mmHg 16%
12:00 +37°C° 0 mm 4 mps 668 mmHg 14%
13:00 +38°C° 0 mm 6 mps 667 mmHg 14%
14:00 +38°C° 0 mm 7 mps 667 mmHg 14%
15:00 +38°C° 0 mm 9 mps 666 mmHg 14%
16:00 +35°C° 0 mm 8 mps 666 mmHg 19%
17:00 +33°C° 0 mm 7 mps 666 mmHg 24%
18:00 +32°C° 0 mm 6 mps 666 mmHg 29%
19:00 +30°C° 0.1 mm 5 mps 666 mmHg 31%
20:00 +29°C° 0.1 mm 3 mps 666 mmHg 33%
21:00 +28°C° 0.1 mm 2 mps 666 mmHg 35%
22:00 +28°C° 0 mm 2 mps 667 mmHg 34%
23:00 +28°C° 0 mm 2 mps 667 mmHg 33%

Day after tomorrow, 14 July, Tuesday

Time Temperature Precipitation Wind Pressure Humidity
00:00 +28°C° 0 mm 2 mps 667 mmHg 31%
01:00 +27°C° 0 mm 1 mps 666 mmHg 36%
02:00 +25°C° 0 mm 1 mps 665 mmHg 40%
03:00 +24°C° 0 mm 1 mps 664 mmHg 45%
04:00 +24°C° 0 mm 1 mps 665 mmHg 44%
05:00 +25°C° 0 mm 1 mps 665 mmHg 43%
06:00 +25°C° 0 mm 1 mps 665 mmHg 41%
07:00 +26°C° 0 mm 1 mps 665 mmHg 38%
08:00 +28°C° 0 mm 1 mps 666 mmHg 34%
09:00 +29°C° 0 mm 2 mps 666 mmHg 31%
10:00 +31°C° 0 mm 2 mps 666 mmHg 27%
11:00 +33°C° 0 mm 3 mps 666 mmHg 23%
12:00 +35°C° 0 mm 4 mps 666 mmHg 20%
13:00 +35°C° 0 mm 4 mps 666 mmHg 18%
14:00 +36°C° 0 mm 5 mps 665 mmHg 17%
15:00 +36°C° 0 mm 6 mps 665 mmHg 15%
16:00 +36°C° 0 mm 6 mps 665 mmHg 16%
17:00 +35°C° 0 mm 5 mps 665 mmHg 16%
18:00 +34°C° 0 mm 5 mps 664 mmHg 17%
19:00 +33°C° 0 mm 4 mps 664 mmHg 21%
20:00 +30°C° 0 mm 4 mps 665 mmHg 25%
21:00 +29°C° 0 mm 3 mps 665 mmHg 29%
22:00 +28°C° 0 mm 3 mps 665 mmHg 32%
23:00 +27°C° 0 mm 3 mps 665 mmHg 36%

15 July, Wednesday

Time Temperature Precipitation Wind Pressure Humidity
00:00 +26°C° 0 mm 3 mps 665 mmHg 39%
01:00 +26°C° 0 mm 3 mps 664 mmHg 40%
02:00 +25°C° 0 mm 2 mps 664 mmHg 41%
03:00 +25°C° 0 mm 2 mps 664 mmHg 41%
04:00 +25°C° 0 mm 2 mps 664 mmHg 40%
05:00 +25°C° 0 mm 3 mps 665 mmHg 38%
06:00 +26°C° 0 mm 4 mps 665 mmHg 36%
07:00 +27°C° 0 mm 4 mps 665 mmHg 32%
08:00 +29°C° 0 mm 4 mps 666 mmHg 28%
09:00 +32°C° 0 mm 5 mps 667 mmHg 24%
10:00 +34°C° 0 mm 5 mps 667 mmHg 22%
11:00 +35°C° 0 mm 6 mps 667 mmHg 19%
12:00 +38°C° 0 mm 6 mps 668 mmHg 17%
13:00 +36°C° 0.1 mm 7 mps 667 mmHg 18%
14:00 +35°C° 0.1 mm 7 mps 666 mmHg 20%
15:00 +34°C° 0.1 mm 7 mps 666 mmHg 22%
16:00 +34°C° 0.1 mm 6 mps 666 mmHg 22%
17:00 +33°C° 0.1 mm 5 mps 666 mmHg 22%
18:00 +33°C° 0.1 mm 4 mps 666 mmHg 23%
19:00 +32°C° 0.1 mm 4 mps 667 mmHg 26%
20:00 +29°C° 0.1 mm 4 mps 667 mmHg 29%
21:00 +28°C° 0.1 mm 4 mps 667 mmHg 32%
22:00 +28°C° 0 mm 4 mps 667 mmHg 32%
23:00 +28°C° 0 mm 4 mps 667 mmHg 32%

16 July, Thursday

Time Temperature Precipitation Wind Pressure Humidity
00:00 +28°C° 0 mm 3 mps 666 mmHg 31%
01:00 +27°C° 0 mm 3 mps 666 mmHg 32%
02:00 +27°C° 0 mm 3 mps 666 mmHg 32%
03:00 +26°C° 0 mm 2 mps 665 mmHg 32%
04:00 +27°C° 0 mm 2 mps 666 mmHg 31%
05:00 +27°C° 0 mm 2 mps 666 mmHg 31%
06:00 +28°C° 0 mm 2 mps 666 mmHg 30%
07:00 +30°C° 0 mm 3 mps 667 mmHg 26%
08:00 +33°C° 0 mm 4 mps 668 mmHg 21%
09:00 +36°C° 0 mm 5 mps 668 mmHg 17%
10:00 +38°C° 0 mm 6 mps 668 mmHg 15%
11:00 +39°C° 0 mm 7 mps 668 mmHg 14%
12:00 +40°C° 0 mm 8 mps 668 mmHg 12%
13:00 +40°C° 0 mm 8 mps 668 mmHg 12%
14:00 +40°C° 0 mm 8 mps 667 mmHg 11%
15:00 +42°C° 0 mm 9 mps 667 mmHg 10%
16:00 +40°C° 0 mm 8 mps 667 mmHg 12%
17:00 +39°C° 0 mm 8 mps 666 mmHg 13%
18:00 +39°C° 0 mm 8 mps 666 mmHg 14%
19:00 +35°C° 0 mm 6 mps 666 mmHg 21%
20:00 +33°C° 0 mm 5 mps 666 mmHg 28%
21:00 +30°C° 0 mm 4 mps 667 mmHg 35%
22:00 +29°C° 0 mm 3 mps 666 mmHg 37%
23:00 +28°C° 0 mm 3 mps 666 mmHg 39%

17 July, Friday

Time Temperature Precipitation Wind Pressure Humidity
00:00 +27°C° 0 mm 2 mps 666 mmHg 41%
01:00 +27°C° 0 mm 2 mps 665 mmHg 41%
02:00 +26°C° 0 mm 2 mps 665 mmHg 41%
03:00 +25°C° 0 mm 2 mps 665 mmHg 41%
04:00 +25°C° 0 mm 2 mps 665 mmHg 39%
05:00 +26°C° 0 mm 2 mps 665 mmHg 37%
06:00 +26°C° 0 mm 2 mps 666 mmHg 34%
07:00 +28°C° 0 mm 3 mps 666 mmHg 31%
08:00 +29°C° 0 mm 4 mps 667 mmHg 28%
09:00 +32°C° 0 mm 4 mps 667 mmHg 25%
10:00 +33°C° 0 mm 4 mps 667 mmHg 23%
11:00 +34°C° 0 mm 4 mps 667 mmHg 21%
12:00 +35°C° 0 mm 4 mps 667 mmHg 19%
13:00 +35°C° 0 mm 4 mps 666 mmHg 19%
14:00 +36°C° 0 mm 5 mps 666 mmHg 18%
15:00 +36°C° 0 mm 5 mps 666 mmHg 18%
16:00 +36°C° 0 mm 4 mps 666 mmHg 19%
17:00 +35°C° 0 mm 4 mps 666 mmHg 20%
18:00 +34°C° 0 mm 3 mps 666 mmHg 21%
19:00 +33°C° 0 mm 4 mps 666 mmHg 24%
20:00 +30°C° 0 mm 4 mps 666 mmHg 27%
21:00 +29°C° 0 mm 5 mps 667 mmHg 30%
22:00 +28°C° 0 mm 5 mps 666 mmHg 34%
23:00 +27°C° 0 mm 4 mps 666 mmHg 37%
Show more